Regional Weather Roundup
Issued by NWS

Home | Current Version | Previous Version | Text Only | Print | Product List | Glossary On
Versions: 1 2 3 4 5 6 7 8 9 10 11 12 13 14 15 16 17 18 19 20 21 22 23 24 25 26 27 28 29 30 31 32 33 34 35 36 37 38 39 40 41 42 43 44 45 46 47 48 49 50
000
ASUS44 KOUN 060710
RWROK

WEATHER ROUNDUP FOR OKLAHOMA
NATIONAL WEATHER SERVICE NORMAN OK
100 AM CST FRI MAR 06 2015

NOTE: "FAIR" INDICATES FEW OR NO CLOUDS BELOW 12,000 FEET WITH NO
      SIGNIFICANT WEATHER AND/OR OBSTRUCTIONS TO VISIBILITY.

OKZ001>007-009>012-014-015-017-060800-
NORTHWEST OKLAHOMA AND THE PANHANDLE

CITY           SKY/WX    TMP DP  RH WIND       PRES   REMARKS
GAGE           CLEAR     28  22  78 SW3       30.39S
ENID/WOODRING  CLEAR     27  23  86 S7        30.45F WCI  19
$$

OKZ016-021>023-033>039-044-045-060800-
SOUTHWEST OKLAHOMA

CITY           SKY/WX    TMP DP  RH WIND       PRES   REMARKS
LAWTON/REGL    CLEAR     27  20  75 S6        30.52F WCI  20
LAWTON/FT SILL CLEAR     28  20  72 SW3       30.50S
FREDERICK      CLEAR     26  21  81 S6        30.48F WCI  19
CLINTON        CLEAR     29  21  72 S18       30.46S WCI  16
HOBART         CLEAR     26  21  81 S13       30.49R WCI  15
ALTUS AFB      CLEAR     23  21  92 SE2       30.49S
$$

OKZ018>020-024>031-060800-
CENTRAL OKLAHOMA

CITY           SKY/WX    TMP DP  RH WIND       PRES   REMARKS
OKLAHOMA CITY  CLEAR     27  16  63 S7        30.49S WCI  19
OKC/WILEY POST CLEAR     30  18  60 S12       30.49F WCI  20
OKC/TINKER AFB CLEAR     25  16  69 S7        30.48S WCI  17
STILLWATER     CLEAR     28  17  63 S9        30.49S WCI  19
GUTHRIE        CLEAR     27  17  66 S7        30.49S WCI  19
$$

OKZ008-013-054>072-060800-
NORTHEAST OKLAHOMA

CITY           SKY/WX    TMP DP  RH WIND       PRES   REMARKS
TULSA          FAIR      29  18  63 S6        30.51F WCI  23
TULSA/JONES    CLEAR     24  18  77 CALM      30.53F
PONCA CITY     MOCLDY    32  17  54 S6        30.47F WCI  26
BARTLESVILLE   CLEAR     22  17  81 CALM      30.51F
MUSKOGEE       CLEAR     25  19  78 S5        30.56S WCI  19
$$

OKZ032-040>043-046>053-073>077-060800-
SOUTH CENTRAL/SOUTHEAST OKLAHOMA

CITY           SKY/WX    TMP DP  RH WIND       PRES   REMARKS
ARDMORE/DWNTWN CLEAR     27  23  86 CALM      30.55S
MCALESTER      CLEAR     24  20  84 CALM      30.55F
$$



USA.gov is the U.S. government's official web portal to all federal, state and local government web resources and services.